[[{"header":{"parameterUnit":"m.s-1","parameterCategory":2,"la1":30.2991,"la2":30.254,"lo1":-89.0895,"lo2":-89.0444,"dx":0.0017,"dy":0.0017,"nx":28,"ny":28,"refTime":"2022-12-07T03:00:00:Z","depth":"0","parameterNumber":2,"parameterNumberName":"U-component_of_CURRENTS"},"data":[0,0,0,0,0,0,0,0,0,0,0,0,0,0,0,0,0,0,0,0,0,0,0,0,0,0,0,0,0,0,0,0,0,0,0,0,0,0,0,0,0,0,0,0,0,0,0,0,0,0,0,0,0,0,0,0,0,0,-0.2856,-0.2857,0,-0.2889,-0.2889,-0.2889,-0.2917,-0.2918,-0.2919,-0.292,-0.2896,-0.2895,-0.2893,0,0,0,0,0,0,0,0,0,0,0,0,0,-0.2837,-0.2837,-0.2856,-0.2857,-0.2858,-0.2889,-0.2889,-0.2889,-0.2917,-0.2918,-0.2919,-0.292,-0.2896,-0.2895,-0.2893,0,0,0,0,0,0,0,0,0,0,0,0,0,-0.285,-0.2837,-0.2856,-0.288,-0.2883,-0.2889,-0.2889,-0.2889,-0.2917,-0.2918,-0.2919,-0.292,-0.2897,-0.2895,-0.2893,-0.2855,0,0,-0.2886,-0.2885,0,0,0,0,0,0,0,0,-0.2849,-0.285,-0.2875,-0.2878,-0.2882,-0.2905,-0.2874,-0.2877,-0.2916,-0.2898,-0.292,-0.2921,-0.2897,-0.2895,-0.2891,-0.2853,-0.2852,-0.2886,-0.2885,-0.2884,-0.2883,0,0,0,0,0,0,0,-0.2848,-0.2849,-0.2863,-0.2876,-0.288,-0.2897,-0.2899,-0.2875,-0.2884,-0.2899,-0.2903,-0.2916,-0.2897,-0.2893,-0.289,-0.2852,-0.2886,-0.2884,-0.2883,-0.2882,-0.2766,-0.2765,0,0,0,0,0,0,-0.2853,-0.2847,-0.2862,-0.2865,-0.2875,-0.2896,-0.2899,-0.2892,-0.2886,-0.2888,-0.2914,-0.2917,-0.2896,-0.2893,-0.2889,-0.2794,-0.2884,-0.2882,-0.2881,-0.2768,-0.2766,-0.2764,0,0,0,0,0,0,-0.2852,-0.2853,-0.2861,-0.2863,-0.2866,-0.2896,-0.2888,-0.2892,-0.2893,-0.2899,-0.2899,-0.2913,-0.2896,-0.2892,-0.2872,-0.2796,-0.2881,-0.2879,-0.277,-0.2767,-0.2765,-0.2636,0,0,0,0,0,0,-0.2851,-0.2852,-0.2842,-0.2862,-0.2866,-0.2836,-0.2887,-0.2892,-0.2901,-0.2904,-0.2897,-0.2896,-0.2897,-0.2875,-0.287,-0.2794,-0.2877,-0.2773,-0.2769,-0.2766,-0.2642,-0.2629,-0.2618,0,0,0,0,0,-0.285,-0.2806,-0.284,-0.2843,-0.2853,-0.2835,-0.2835,-0.2859,-0.29,-0.2871,-0.2892,-0.2897,-0.2849,-0.2872,-0.2866,-0.2788,-0.2774,-0.277,-0.2766,-0.2648,-0.2632,-0.2618,0,0,0,0,0,0,-0.2771,-0.2807,-0.2844,-0.281,-0.2822,-0.2841,-0.2815,-0.2856,-0.2851,-0.2858,-0.2882,-0.288,-0.283,-0.2838,-0.2864,-0.2749,-0.2808,-0.2802,-0.272,-0.2705,-0.2692,-0.2675,-0.2876,0,0,0,0,0,-0.2759,-0.2744,-0.2783,-0.2752,-0.2754,-0.2794,-0.2794,-0.2816,-0.2825,-0.2825,-0.2833,-0.2831,-0.2805,-0.2783,-0.2767,-0.2706,-0.2698,-0.2652,-0.264,-0.2629,-0.2612,-0.2541,-0.2519,-0.2751,-0.2751,-0.2751,0,0,-0.2719,-0.2738,-0.2729,-0.2737,-0.2745,-0.2729,-0.2792,-0.2774,-0.2761,-0.282,-0.2787,-0.2792,-0.2785,-0.2717,-0.2692,-0.2713,-0.256,-0.2624,-0.2614,-0.2603,-0.2534,-0.2511,-0.2491,-0.2748,-0.2748,-0.2749,0,0,-0.2617,-0.2647,-0.2602,-0.262,-0.2641,-0.2662,-0.2661,-0.2686,-0.2688,-0.2683,-0.2704,-0.2663,-0.2661,-0.2603,-0.2586,-0.2494,-0.2506,-0.2499,-0.2402,-0.2332,-0.2312,-0.2294,-0.2254,-0.2233,-0.248,-0.248,-0.248,0,-0.2575,-0.2546,-0.258,-0.2556,-0.257,-0.2633,-0.26,-0.26,-0.2619,-0.261,-0.2659,-0.2611,-0.2592,-0.2481,-0.2446,-0.2456,-0.245,-0.2455,-0.2312,-0.2295,-0.2278,-0.2242,-0.2221,-0.2473,-0.2474,-0.2474,-0.2475,0,-0.2444,-0.2454,-0.2421,-0.2429,-0.2426,-0.2411,-0.244,-0.243,-0.2476,-0.2494,-0.2436,-0.2421,-0.2393,-0.2361,-0.2377,-0.2235,-0.228,-0.2312,-0.2344,-0.2247,-0.2216,-0.2196,-0.2463,-0.2466,-0.2468,-0.2469,0,0,-0.2305,-0.233,-0.2334,-0.2355,-0.238,-0.237,-0.2327,-0.2313,-0.2305,-0.2304,-0.2272,-0.2189,-0.2209,-0.2188,-0.2176,-0.2097,-0.1962,-0.2152,-0.2151,-0.2101,-0.1835,-0.1791,-0.1767,-0.1982,-0.1978,-0.1975,-0.1859,0,-0.2215,-0.2176,-0.22,-0.2183,-0.2182,-0.2233,-0.2201,-0.2197,-0.2214,-0.2195,-0.2152,-0.2126,-0.2134,-0.2123,-0.2033,-0.2004,-0.1907,-0.1993,-0.1947,-0.1945,-0.1908,-0.174,-0.1677,-0.1561,-0.184,-0.1837,-0.1834,0,-0.2091,-0.2112,-0.2054,-0.2127,-0.2124,-0.2081,-0.2078,-0.2077,-0.205,-0.2075,-0.2026,-0.2044,-0.1917,-0.1965,-0.1806,-0.1875,-0.1829,-0.1799,-0.1795,-0.1783,-0.1863,-0.1705,-0.1516,-0.1514,-0.1805,-0.1807,-0.1809,0,-0.1975,-0.2028,-0.1985,-0.2002,-0.2044,-0.1992,-0.2009,-0.1996,-0.1949,-0.1983,-0.1955,-0.1901,-0.1842,-0.1779,-0.1725,-0.1768,-0.158,-0.1637,-0.1539,-0.1539,-0.1485,-0.1486,-0.1274,-0.1487,-0.1488,-0.1488,-0.1488,0,-0.1848,-0.1824,-0.1926,-0.1884,-0.1813,-0.1924,-0.1798,-0.1839,-0.1828,-0.1725,-0.1864,-0.1757,-0.1791,-0.1706,-0.1682,-0.1538,-0.1535,-0.147,-0.1473,-0.1441,-0.1438,-0.1442,-0.1483,-0.1484,-0.1485,-0.1485,-0.1486,0,-0.159,-0.1682,-0.1628,-0.1703,-0.1704,-0.1625,-0.1566,-0.1521,-0.1608,-0.1471,-0.1472,-0.1571,-0.1541,-0.1567,-0.1484,-0.1443,-0.1323,-0.1307,-0.1286,-0.1285,-0.1197,-0.1236,-0.1054,-0.1027,-0.1165,-0.1162,-0.116,0,-0.1388,-0.1375,-0.1413,-0.1388,-0.1354,-0.1293,-0.1237,-0.1311,-0.1246,-0.1299,-0.1204,-0.1251,-0.1198,-0.1158,-0.1195,-0.1168,-0.1204,-0.1059,-0.1092,-0.1118,-0.1165,-0.1219,-0.1215,-0.0982,-0.0979,-0.0976,-0.0974,0,-0.1048,-0.1085,-0.1053,-0.1048,-0.0968,-0.0885,-0.0826,-0.0734,-0.0837,-0.0764,-0.0729,-0.0738,-0.0829,-0.0849,-0.0938,-0.0913,-0.1042,-0.1,-0.1008,-0.0953,-0.1014,-0.1017,-0.1176,-0.095,-0.0953,-0.0954,-0.0956,-0.0957,-0.0781,-0.0676,-0.0745,-0.0692,-0.0666,-0.0591,-0.0471,-0.0442,-0.0318,-0.0288,-0.0301,-0.0295,-0.0473,-0.0636,-0.0662,-0.076,-0.0831,-0.0746,-0.0778,-0.0823,-0.0805,-0.0915,-0.0713,-0.0714,-0.0715,-0.0715,-0.0716,0,-0.052,-0.0491,-0.045,-0.04,-0.0371,-0.0412,-0.0314,-0.0232,-0.0089,0.0015,0.0082,0.0064,-0.0095,-0.0332,-0.0551,-0.055,-0.058,-0.0567,-0.0627,-0.0625,-0.0681,-0.0682,-0.0486,-0.0486,-0.0486,-0.0486,-0.0486,-0.0486,-0.0403,-0.0301,-0.0304,-0.0198,-0.02,-0.0114,-0.0072,0.0053,0.0125,0.0283,0.0349,0.0351,0.0083,-0.026,-0.0472,-0.0484,-0.0512,-0.049,-0.0534,-0.0596,-0.0616,-0.0636,-0.0643,-0.0442,-0.0442,-0.0455,-0.0455,-0.0455]},{"header":{"parameterUnit":"m.s-1","parameterCategory":2,"la1":30.2991,"la2":30.254,"lo1":-89.0895,"lo2":-89.0444,"dx":0.0017,"dy":0.0017,"nx":28,"ny":28,"refTime":"2022-12-07T03:00:00:Z","depth":"0","parameterNumber":3,"parameterNumberName":"V-component_of_CURRENTS"},"data":[0,0,0,0,0,0,0,0,0,0,0,0,0,0,0,0,0,0,0,0,0,0,0,0,0,0,0,0,0,0,0,0,0,0,0,0,0,0,0,0,0,0,0,0,0,0,0,0,0,0,0,0,0,0,0,0,0,0,0.0095,0.0098,0,0.0378,0.0382,0.0385,0.06,0.0602,0.0604,0.0606,0.1102,0.1113,0.1124,0,0,0,0,0,0,0,0,0,0,0,0,0,-0.0093,-0.0092,0.0095,0.0098,0.0102,0.0378,0.0382,0.0386,0.0599,0.0602,0.0604,0.0606,0.1098,0.1112,0.1125,0,0,0,0,0,0,0,0,0,0,0,0,0,0.0068,-0.0092,0.0094,0.0242,0.0258,0.0377,0.0382,0.0387,0.0599,0.0602,0.0605,0.0608,0.1094,0.111,0.1127,0.1173,0,0,0.1179,0.1187,0,0,0,0,0,0,0,0,0.0059,0.0075,0.0217,0.0232,0.025,0.0457,0.0498,0.066,0.0598,0.0469,0.0606,0.0609,0.0904,0.0937,0.098,0.1196,0.1217,0.1181,0.1191,0.1198,0.1203,0,0,0,0,0,0,0,0.0047,0.0065,0.0207,0.022,0.0241,0.0352,0.0376,0.0529,0.067,0.0481,0.0497,0.0528,0.0915,0.0963,0.0994,0.1225,0.118,0.1195,0.1206,0.1213,0.1523,0.1522,0,0,0,0,0,0,0.0,0.0053,0.0198,0.0216,0.016,0.0352,0.038,0.0387,0.0665,0.0708,0.0525,0.0537,0.0932,0.0974,0.1013,0.1161,0.1198,0.1214,0.1224,0.1525,0.1523,0.1521,0,0,0,0,0,0,-0.0006,0.0009,0.0187,0.0143,0.0173,0.0351,0.0359,0.0391,0.0448,0.0696,0.0744,0.0548,0.0936,0.0989,0.1138,0.1179,0.1222,0.1238,0.1528,0.1525,0.1522,0.1408,0,0,0,0,0,0,-0.0013,0.0005,-0.0014,0.0138,0.0174,0.0253,0.0357,0.0395,0.0462,0.048,0.0732,0.0781,0.0943,0.1111,0.1154,0.1203,0.1251,0.153,0.1526,0.1523,0.1414,0.1402,0.1391,0,0,0,0,0,-0.0021,-0.0047,-0.0017,0.0001,0.0144,0.0252,0.028,0.0419,0.0459,0.0479,0.0634,0.0773,0.1118,0.1123,0.1175,0.123,0.1532,0.1527,0.1523,0.142,0.1404,0.1391,0,0,0,0,0,0,-0.0126,-0.0024,0.0013,0.002,0.0121,0.0289,0.031,0.0393,0.0525,0.0542,0.0763,0.0822,0.0955,0.108,0.1079,0.1293,0.1342,0.1348,0.1246,0.1233,0.1221,0.1236,0.1265,0,0,0,0,0,-0.017,-0.0165,-0.0041,-0.0034,-0.0005,0.0137,0.0192,0.0284,0.0423,0.0483,0.0656,0.0823,0.0971,0.109,0.122,0.136,0.1414,0.1416,0.1404,0.1393,0.1431,0.1517,0.1518,0.1506,0.1506,0.1506,0,0,-0.0201,-0.015,-0.0142,-0.0057,0.0019,0.0104,0.0178,0.0247,0.0356,0.0517,0.0684,0.0777,0.0981,0.1125,0.12,0.1255,0.1399,0.1388,0.1379,0.1424,0.1513,0.1515,0.1517,0.1503,0.1504,0.1504,0,0,-0.0247,-0.0236,-0.0238,-0.0161,-0.0061,0.0044,0.0051,0.02,0.0293,0.0439,0.0564,0.0673,0.0924,0.1076,0.1189,0.1185,0.13,0.1211,0.1232,0.1312,0.1316,0.132,0.1284,0.1287,0.1249,0.1249,0.1248,0,-0.0287,-0.0251,-0.0217,-0.0176,-0.0087,0.0011,0.0086,0.0189,0.038,0.046,0.048,0.0773,0.0918,0.1129,0.1126,0.1174,0.1189,0.128,0.1301,0.1307,0.1313,0.1278,0.1282,0.1243,0.1243,0.1244,0.1244,0,-0.0289,-0.0256,-0.0253,-0.0152,-0.0076,-0.0001,0.0147,0.0227,0.0329,0.045,0.061,0.0761,0.0949,0.0988,0.1086,0.1204,0.1179,0.124,0.1344,0.1308,0.127,0.1276,0.1234,0.1236,0.1238,0.1239,0,0,-0.0283,-0.0266,-0.0239,-0.0161,-0.0041,0.0065,0.0169,0.0346,0.0445,0.0573,0.0707,0.0904,0.0928,0.1049,0.1142,0.1231,0.1235,0.1257,0.1264,0.1232,0.1323,0.1241,0.1239,0.1303,0.1306,0.1308,0.124,0,-0.0245,-0.0191,-0.0177,-0.0014,0.0077,0.017,0.0288,0.0438,0.0541,0.067,0.0798,0.0937,0.0977,0.1037,0.1123,0.1215,0.1264,0.1243,0.1357,0.1359,0.1304,0.1251,0.1261,0.12,0.1247,0.1248,0.1249,0,-0.0129,-0.011,-0.002,0.0124,0.0167,0.0262,0.0476,0.0591,0.073,0.0788,0.0885,0.0942,0.1077,0.1093,0.1241,0.1219,0.1262,0.1316,0.1316,0.131,0.1294,0.1265,0.1211,0.1267,0.126,0.1259,0.1258,0,0.0037,0.0092,0.017,0.0224,0.0335,0.041,0.0504,0.0639,0.0756,0.0849,0.0891,0.1005,0.107,0.1164,0.1215,0.1241,0.1325,0.1382,0.1337,0.1326,0.14,0.1392,0.1446,0.1485,0.1485,0.1485,0.1486,0,0.0204,0.031,0.0246,0.0331,0.0455,0.0522,0.0681,0.0746,0.0853,0.0975,0.0965,0.1052,0.1098,0.1132,0.1195,0.1242,0.1303,0.1329,0.1331,0.1341,0.133,0.1439,0.1473,0.1483,0.1483,0.1484,0.1484,0,0.0432,0.0384,0.0501,0.0532,0.0546,0.0667,0.0779,0.0889,0.0944,0.1077,0.1101,0.1104,0.1095,0.1081,0.117,0.1208,0.1295,0.1276,0.1205,0.1201,0.1228,0.1253,0.1302,0.1357,0.1229,0.1227,0.1226,0,0.0554,0.06,0.0619,0.0612,0.0616,0.0744,0.0824,0.095,0.103,0.1143,0.12,0.1164,0.118,0.1162,0.1122,0.1104,0.1206,0.1144,0.1238,0.1221,0.1253,0.1265,0.1311,0.1236,0.1234,0.1233,0.1232,0,0.0746,0.0718,0.0771,0.0687,0.0752,0.0856,0.095,0.104,0.1184,0.1265,0.1342,0.1364,0.1254,0.1191,0.1059,0.1092,0.1182,0.1119,0.1188,0.1328,0.1271,0.1325,0.1196,0.1221,0.1222,0.1223,0.1224,0.1224,0.0858,0.091,0.0847,0.0812,0.0806,0.0865,0.0979,0.1064,0.1224,0.133,0.1416,0.145,0.1401,0.1198,0.1143,0.1059,0.1099,0.1152,0.1188,0.1202,0.1266,0.1034,0.102,0.102,0.102,0.102,0.102,0,0.0963,0.0962,0.0913,0.0897,0.085,0.0841,0.0967,0.1086,0.1204,0.1339,0.1429,0.1541,0.1426,0.1314,0.117,0.1173,0.122,0.1199,0.1285,0.1341,0.1219,0.1234,0.1164,0.1164,0.1164,0.1164,0.1164,0.1164,0.1019,0.1029,0.1006,0.0923,0.0846,0.0897,0.0961,0.1106,0.1183,0.1367,0.146,0.1563,0.1596,0.141,0.1301,0.1298,0.1418,0.1342,0.1415,0.1387,0.1388,0.1389,0.1413,0.1382,0.1383,0.1565,0.1566,0.1567]}],[{"header":{"parameterUnit":"m.s-1","parameterCategory":2,"la1":30.2991,"la2":30.254,"lo1":-89.0895,"lo2":-89.0444,"dx":0.0017,"dy":0.0017,"nx":28,"ny":28,"refTime":"2022-12-07T03:00:00:Z","depth":"2","parameterNumber":2,"parameterNumberName":"U-component_of_CURRENTS"},"data":[0,0,0,0,0,0,0,0,0,0,0,0,0,0,0,0,0,0,0,0,0,0,0,0,0,0,0,0,0,0,0,0,0,0,0,0,0,0,0,0,0,0,0,0,0,0,0,0,0,0,0,0,0,0,0,0,0,0,-0.2111,-0.2112,0,-0.2218,-0.222,-0.2221,-0.2293,-0.2294,-0.2294,-0.2294,-0.2492,-0.2497,-0.2502,0,0,0,0,0,0,0,0,0,0,0,0,0,-0.2011,-0.2013,-0.2111,-0.2112,-0.2113,-0.2218,-0.222,-0.2221,-0.2293,-0.2294,-0.2294,-0.2295,-0.2491,-0.2496,-0.2502,0,0,0,0,0,0,0,0,0,0,0,0,0,-0.2081,-0.2013,-0.2111,-0.2161,-0.2166,-0.2218,-0.222,-0.2222,-0.2293,-0.2294,-0.2294,-0.2295,-0.2489,-0.2496,-0.2503,-0.2537,0,0,-0.2526,-0.2529,0,0,0,0,0,0,0,0,-0.2077,-0.2085,-0.2152,-0.2158,-0.2164,-0.2242,-0.2257,-0.2331,-0.2293,-0.2246,-0.2295,-0.2295,-0.2416,-0.2429,-0.2448,-0.2546,-0.2554,-0.2526,-0.2531,-0.2534,-0.2536,0,0,0,0,0,0,0,-0.2072,-0.2081,-0.2155,-0.2153,-0.216,-0.2193,-0.2203,-0.2271,-0.2329,-0.225,-0.2256,-0.2265,-0.242,-0.2441,-0.2454,-0.2557,-0.2526,-0.2533,-0.2537,-0.254,-0.2682,-0.2681,0,0,0,0,0,0,-0.2054,-0.2076,-0.2151,-0.2158,-0.212,-0.2194,-0.2206,-0.2217,-0.2327,-0.2343,-0.2265,-0.2268,-0.2428,-0.2445,-0.2461,-0.2483,-0.2534,-0.2541,-0.2545,-0.2682,-0.2682,-0.2681,0,0,0,0,0,0,-0.2051,-0.2059,-0.2147,-0.2118,-0.2132,-0.2195,-0.2207,-0.2219,-0.2257,-0.2336,-0.2354,-0.2292,-0.2429,-0.2451,-0.2502,-0.2492,-0.2544,-0.2551,-0.2683,-0.2682,-0.2681,-0.2543,0,0,0,0,0,0,-0.2048,-0.2058,-0.2058,-0.2117,-0.2132,-0.218,-0.2207,-0.2221,-0.226,-0.2266,-0.2366,-0.2383,-0.2432,-0.2491,-0.251,-0.2504,-0.2556,-0.2684,-0.2683,-0.2682,-0.2548,-0.2537,-0.2528,0,0,0,0,0,-0.2044,-0.2045,-0.2057,-0.2066,-0.2131,-0.218,-0.2191,-0.2239,-0.2261,-0.2276,-0.2321,-0.2381,-0.2497,-0.2496,-0.2518,-0.2514,-0.2685,-0.2683,-0.2682,-0.2553,-0.254,-0.2528,0,0,0,0,0,0,-0.2002,-0.2054,-0.2069,-0.2085,-0.2128,-0.2192,-0.2206,-0.2244,-0.2293,-0.2295,-0.2374,-0.2394,-0.2428,-0.2496,-0.2493,-0.2551,-0.2602,-0.2605,-0.2496,-0.2485,-0.2475,-0.2436,-0.2563,0,0,0,0,0,-0.199,-0.2006,-0.2059,-0.2072,-0.2089,-0.2149,-0.2175,-0.2206,-0.2257,-0.228,-0.235,-0.2409,-0.2439,-0.248,-0.2525,-0.2572,-0.2571,-0.2585,-0.2575,-0.2566,-0.2549,-0.2536,-0.2521,-0.2676,-0.2676,-0.2676,0,0,-0.1965,-0.2007,-0.2007,-0.2064,-0.2098,-0.2116,-0.2167,-0.2201,-0.2218,-0.2294,-0.2342,-0.2376,-0.2439,-0.2464,-0.2489,-0.2524,-0.2511,-0.2564,-0.2555,-0.2543,-0.2532,-0.2517,-0.2503,-0.2675,-0.2675,-0.2676,0,0,-0.1929,-0.1971,-0.1963,-0.2,-0.2052,-0.2095,-0.2106,-0.2175,-0.2207,-0.2258,-0.2283,-0.2295,-0.2413,-0.2408,-0.243,-0.2399,-0.2446,-0.2442,-0.2377,-0.2363,-0.2349,-0.2338,-0.2264,-0.2246,-0.2452,-0.2452,-0.2452,0,-0.1891,-0.1906,-0.1968,-0.1978,-0.2002,-0.2083,-0.2081,-0.2126,-0.2203,-0.2212,-0.2264,-0.2324,-0.2372,-0.2346,-0.2324,-0.2372,-0.2363,-0.2412,-0.2345,-0.2334,-0.2324,-0.2252,-0.2235,-0.2445,-0.2446,-0.2446,-0.2447,0,-0.1852,-0.1863,-0.1868,-0.1907,-0.1942,-0.1961,-0.2026,-0.2065,-0.2128,-0.2162,-0.2176,-0.2219,-0.2253,-0.2265,-0.229,-0.2237,-0.2247,-0.2316,-0.2365,-0.2299,-0.2228,-0.2212,-0.2435,-0.2438,-0.244,-0.2441,0,0,-0.1762,-0.182,-0.1824,-0.1832,-0.1908,-0.1937,-0.1963,-0.2001,-0.2015,-0.2077,-0.2076,-0.209,-0.2111,-0.2132,-0.2155,-0.2139,-0.2032,-0.2197,-0.22,-0.21,-0.1958,-0.1883,-0.1859,-0.2103,-0.2101,-0.2099,-0.1916,0,-0.1707,-0.1705,-0.176,-0.1764,-0.1764,-0.185,-0.1885,-0.1928,-0.1983,-0.2009,-0.2017,-0.204,-0.2066,-0.208,-0.2051,-0.2055,-0.1995,-0.2072,-0.2057,-0.2055,-0.1979,-0.184,-0.1747,-0.1571,-0.1901,-0.1898,-0.1896,0,-0.1638,-0.1659,-0.1638,-0.1703,-0.1715,-0.1741,-0.1805,-0.1847,-0.1885,-0.1931,-0.1924,-0.1955,-0.1901,-0.1969,-0.1887,-0.1944,-0.1921,-0.1918,-0.1913,-0.1883,-0.1951,-0.1705,-0.1531,-0.1871,-0.1873,-0.1875,-0.1876,0,-0.1543,-0.1575,-0.1562,-0.158,-0.166,-0.1679,-0.1744,-0.1804,-0.1851,-0.1869,-0.1893,-0.1853,-0.1853,-0.1822,-0.1803,-0.1853,-0.1717,-0.1798,-0.168,-0.1674,-0.1609,-0.16,-0.171,-0.1711,-0.1711,-0.1712,-0.1712,0,-0.1468,-0.146,-0.1519,-0.1518,-0.1529,-0.162,-0.1652,-0.1711,-0.179,-0.1821,-0.1842,-0.1831,-0.1829,-0.1768,-0.1747,-0.1634,-0.1667,-0.1606,-0.1611,-0.1553,-0.1542,-0.1848,-0.1866,-0.1705,-0.1706,-0.1707,-0.1709,0,-0.1364,-0.1395,-0.1383,-0.1455,-0.1474,-0.1492,-0.1622,-0.1648,-0.1747,-0.178,-0.1791,-0.1796,-0.1708,-0.1662,-0.1591,-0.1554,-0.1475,-0.143,-0.1322,-0.1317,-0.1442,-0.1456,-0.1251,-0.1247,-0.1243,-0.124,-0.1237,0,-0.1311,-0.1285,-0.1321,-0.1318,-0.1351,-0.1406,-0.1443,-0.159,-0.1644,-0.175,-0.1747,-0.1687,-0.1619,-0.144,-0.1342,-0.1213,-0.1329,-0.1075,-0.115,-0.1363,-0.139,-0.141,-0.1429,-0.0984,-0.098,-0.0976,-0.0973,0,-0.1216,-0.1222,-0.1234,-0.1218,-0.1236,-0.127,-0.1357,-0.1393,-0.1567,-0.1603,-0.164,-0.16,-0.1443,-0.1241,-0.1064,-0.1003,-0.1091,-0.0995,-0.1232,-0.1133,-0.1103,-0.1133,-0.1161,-0.094,-0.0944,-0.0946,-0.0948,-0.0949,-0.115,-0.1133,-0.1137,-0.1127,-0.113,-0.113,-0.1136,-0.123,-0.1284,-0.1332,-0.143,-0.1329,-0.1295,-0.0934,-0.0841,-0.0738,-0.0828,-0.0811,-0.0826,-0.0844,-0.0865,-0.0832,-0.0617,-0.0618,-0.062,-0.0621,-0.0622,0,-0.1064,-0.1063,-0.1049,-0.103,-0.0992,-0.1031,-0.1069,-0.1062,-0.1055,-0.1077,-0.1101,-0.0979,-0.08,-0.0747,-0.0531,-0.0489,-0.053,-0.0478,-0.055,-0.058,-0.0608,-0.0623,-0.0307,-0.0306,-0.0306,-0.0305,0,0,-0.102,-0.0986,-0.0986,-0.0901,-0.0878,-0.0806,-0.0792,-0.0774,-0.077,-0.0697,-0.0651,-0.0702,-0.0713,-0.052,-0.0467,-0.0343,-0.0463,-0.0317,-0.0565,-0.0679,-0.0706,-0.0787,-0.0839,0,0,0,0,0]},{"header":{"parameterUnit":"m.s-1","parameterCategory":2,"la1":30.2991,"la2":30.254,"lo1":-89.0895,"lo2":-89.0444,"dx":0.0017,"dy":0.0017,"nx":28,"ny":28,"refTime":"2022-12-07T03:00:00:Z","depth":"2","parameterNumber":3,"parameterNumberName":"V-component_of_CURRENTS"},"data":[0,0,0,0,0,0,0,0,0,0,0,0,0,0,0,0,0,0,0,0,0,0,0,0,0,0,0,0,0,0,0,0,0,0,0,0,0,0,0,0,0,0,0,0,0,0,0,0,0,0,0,0,0,0,0,0,0,0,-0.0409,-0.0407,0,-0.0226,-0.0224,-0.0222,-0.008,-0.0079,-0.0078,-0.0077,0.0442,0.0454,0.0467,0,0,0,0,0,0,0,0,0,0,0,0,0,-0.0533,-0.0532,-0.0409,-0.0407,-0.0405,-0.0227,-0.0224,-0.0221,-0.0081,-0.0079,-0.0078,-0.0077,0.0438,0.0453,0.0468,0,0,0,0,0,0,0,0,0,0,0,0,0,-0.0426,-0.0532,-0.041,-0.0315,-0.0305,-0.0227,-0.0224,-0.022,-0.0081,-0.0079,-0.0078,-0.0076,0.0433,0.0451,0.047,0.0554,0,0,0.0529,0.0537,0,0,0,0,0,0,0,0,-0.0432,-0.0421,-0.0331,-0.0322,-0.031,-0.0176,-0.0077,0.0055,-0.0081,-0.0164,-0.0077,-0.0075,0.0264,0.0297,0.0326,0.0579,0.0601,0.0531,0.0542,0.055,0.0556,0,0,0,0,0,0,0,-0.044,-0.0428,-0.0335,-0.0329,-0.0316,-0.0246,-0.023,-0.0052,0.0046,-0.0156,-0.0146,-0.013,0.0273,0.0306,0.034,0.0609,0.053,0.0547,0.0559,0.0566,0.0874,0.0871,0,0,0,0,0,0,-0.0475,-0.0436,-0.034,-0.0329,-0.0371,-0.0246,-0.0228,-0.0219,0.0037,0.0075,-0.0132,-0.0124,0.0273,0.0317,0.0359,0.0501,0.055,0.0568,0.0579,0.0877,0.0873,0.0869,0,0,0,0,0,0,-0.0478,-0.0468,-0.0348,-0.0379,-0.0359,-0.0247,-0.0238,-0.0217,-0.0177,0.0052,0.0097,-0.0114,0.0276,0.0332,0.0485,0.0522,0.0577,0.0594,0.0881,0.0876,0.0871,0.0769,0,0,0,0,0,0,-0.0483,-0.0471,-0.0476,-0.0382,-0.0359,-0.0288,-0.0239,-0.0214,-0.0171,-0.0159,0.0083,0.0132,0.0282,0.0454,0.0504,0.0549,0.0609,0.0885,0.0879,0.0873,0.0777,0.0761,0.0748,0,0,0,0,0,-0.0488,-0.0486,-0.0477,-0.0465,-0.037,-0.0288,-0.0269,-0.0181,-0.0172,-0.0143,-0.0022,0.0124,0.0449,0.0468,0.0527,0.0579,0.0888,0.088,0.0873,0.0783,0.0764,0.0748,0,0,0,0,0,0,-0.0525,-0.047,-0.0457,-0.0436,-0.037,-0.0265,-0.0235,-0.0197,-0.0087,-0.0075,0.0117,0.0175,0.0308,0.0427,0.0442,0.0626,0.0681,0.0684,0.0591,0.0576,0.0562,0.0555,0.0625,0,0,0,0,0,-0.0548,-0.0542,-0.0467,-0.0451,-0.0426,-0.0345,-0.0306,-0.0253,-0.0149,-0.0102,0.0058,0.0198,0.0318,0.0431,0.0558,0.0699,0.0758,0.0746,0.0732,0.072,0.074,0.081,0.0806,0.0845,0.0845,0.0845,0,0,-0.0559,-0.0529,-0.0524,-0.0461,-0.0409,-0.0364,-0.0315,-0.0259,-0.0214,-0.0054,0.0065,0.0167,0.0328,0.0457,0.053,0.058,0.0722,0.0711,0.0701,0.0728,0.0803,0.08,0.0797,0.084,0.0841,0.0842,0,0,-0.057,-0.0555,-0.055,-0.0508,-0.0443,-0.0383,-0.0378,-0.0277,-0.0222,-0.0118,-0.0025,0.0087,0.0303,0.0424,0.0507,0.0489,0.0621,0.0511,0.0498,0.0563,0.0563,0.0564,0.0575,0.0577,0.0535,0.0535,0.0535,0,-0.0587,-0.0575,-0.053,-0.0511,-0.0477,-0.0402,-0.0375,-0.031,-0.0172,-0.0124,-0.0091,0.0139,0.029,0.0431,0.0416,0.0475,0.0497,0.0567,0.0552,0.0554,0.0556,0.0569,0.0573,0.0529,0.053,0.0531,0.0531,0,-0.0587,-0.0582,-0.0572,-0.0531,-0.0483,-0.0448,-0.0363,-0.0302,-0.0243,-0.0174,-0.0052,0.0107,0.0258,0.0295,0.0376,0.0459,0.0458,0.0505,0.0611,0.0547,0.0562,0.0568,0.0521,0.0523,0.0525,0.0526,0,0,-0.0624,-0.0582,-0.0582,-0.0587,-0.0497,-0.0467,-0.0387,-0.0296,-0.0251,-0.0138,-0.0061,0.0106,0.0174,0.0264,0.0368,0.0436,0.0461,0.0476,0.0482,0.0512,0.0555,0.0488,0.0489,0.0503,0.0505,0.0506,0.0539,0,-0.0639,-0.0634,-0.0584,-0.0574,-0.0571,-0.048,-0.0407,-0.0321,-0.0228,-0.013,-0.0006,0.0117,0.0167,0.0253,0.0316,0.0442,0.0481,0.0445,0.0591,0.0595,0.0567,0.0497,0.046,0.0482,0.0546,0.0547,0.0548,0,-0.067,-0.0663,-0.0664,-0.0623,-0.0606,-0.0577,-0.0472,-0.0396,-0.0245,-0.0154,-0.0034,0.0075,0.022,0.0255,0.0418,0.0385,0.0455,0.0523,0.0527,0.052,0.0542,0.0564,0.0493,0.056,0.0559,0.0558,0.0558,0,-0.0765,-0.073,-0.0743,-0.0733,-0.0654,-0.0632,-0.0567,-0.0424,-0.0341,-0.0168,-0.0078,0.0077,0.0184,0.0292,0.0419,0.0438,0.0544,0.0608,0.0593,0.0588,0.0618,0.0612,0.069,0.069,0.069,0.069,0.069,0,-0.0831,-0.0845,-0.0807,-0.0828,-0.0815,-0.0731,-0.0687,-0.0563,-0.0397,-0.0308,-0.0111,0.0001,0.0197,0.0289,0.0394,0.0483,0.0529,0.0576,0.0599,0.0567,0.0557,0.0694,0.0694,0.0691,0.0691,0.0691,0.0691,0,-0.0931,-0.0916,-0.0931,-0.088,-0.0878,-0.0867,-0.0764,-0.0703,-0.0525,-0.0396,-0.0323,-0.0057,0.0099,0.023,0.0409,0.045,0.0557,0.0566,0.0475,0.0486,0.0563,0.0556,0.0599,0.0597,0.0596,0.0594,0.0593,0,-0.0974,-0.1005,-0.099,-0.0996,-0.0983,-0.0971,-0.0937,-0.078,-0.0714,-0.044,-0.0383,-0.0162,-0.001,0.0193,0.0329,0.0463,0.0505,0.0467,0.0522,0.0539,0.0558,0.0554,0.055,0.0502,0.05,0.0499,0.0498,0,-0.1036,-0.1034,-0.1031,-0.1053,-0.1062,-0.1049,-0.1013,-0.0975,-0.0787,-0.0679,-0.0477,-0.0316,-0.0057,0.012,0.0272,0.0353,0.0452,0.0441,0.0515,0.0513,0.0446,0.0464,0.0464,0.0484,0.0486,0.0487,0.0487,0.0488,-0.1054,-0.1058,-0.1067,-0.1078,-0.1087,-0.1084,-0.1073,-0.103,-0.095,-0.0735,-0.0636,-0.0387,-0.0173,0.0099,0.0223,0.0361,0.0393,0.0424,0.0431,0.0438,0.0403,0.0336,0.0344,0.0345,0.0345,0.0346,0.0346,0,-0.1052,-0.1067,-0.1084,-0.1098,-0.11,-0.1103,-0.1077,-0.1037,-0.0984,-0.0819,-0.068,-0.0447,-0.0237,0.0037,0.0241,0.0332,0.0373,0.0352,0.0393,0.0403,0.0412,0.038,0.0313,0.0314,0.0314,0.0315,0,0,-0.1056,-0.1069,-0.1078,-0.11,-0.111,-0.1103,-0.1081,-0.1012,-0.0906,-0.0756,-0.0605,-0.0472,-0.0179,-0.0064,0.0079,0.0221,0.0288,0.0231,0.0237,0.0275,0.0283,0.0423,0.0377,0,0,0,0,0]}],[{"header":{"parameterUnit":"m.s-1","parameterCategory":2,"la1":30.2991,"la2":30.254,"lo1":-89.0895,"lo2":-89.0444,"dx":0.0017,"dy":0.0017,"nx":28,"ny":28,"refTime":"2022-12-07T03:00:00:Z","depth":"4","parameterNumber":2,"parameterNumberName":"U-component_of_CURRENTS"},"data":[0,0,0,0,0,0,0,0,0,0,0,0,0,0,0,0,0,0,0,0,0,0,0,0,0,0,0,0,0,0,0,0,0,0,0,0,0,0,0,0,0,0,0,0,0,0,0,0,0,0,0,0,0,0,0,0,0,0,-0.1106,-0.1107,0,-0.1135,-0.1135,-0.1135,-0.1169,-0.1169,-0.117,-0.1171,-0.1136,-0.1135,-0.1133,0,0,0,0,0,0,0,0,0,0,0,0,0,-0.1071,-0.1071,-0.1106,-0.1107,-0.1107,-0.1135,-0.1135,-0.1135,-0.1169,-0.1169,-0.117,-0.1171,-0.1137,-0.1135,-0.1133,0,0,0,0,0,0,0,0,0,0,0,0,0,-0.109,-0.1071,-0.1106,-0.1129,-0.1131,-0.1135,-0.1135,-0.1135,-0.1168,-0.1169,-0.117,-0.1171,-0.1138,-0.1135,-0.1133,-0.1098,0,0,-0.1126,-0.1125,0,0,0,0,0,0,0,0,-0.1089,-0.1091,-0.1125,-0.1127,-0.113,-0.1151,-0.111,-0.112,-0.1168,-0.1152,-0.1171,-0.1172,-0.1136,-0.1134,-0.1135,-0.1096,-0.1095,-0.1126,-0.1124,-0.1123,-0.1123,0,0,0,0,0,0,0,-0.1087,-0.109,-0.1116,-0.1125,-0.1128,-0.1134,-0.1138,-0.1112,-0.1135,-0.1154,-0.1157,-0.1162,-0.1137,-0.1137,-0.1134,-0.1094,-0.1126,-0.1124,-0.1122,-0.1121,-0.1128,-0.113,0,0,0,0,0,0,-0.1087,-0.1088,-0.1115,-0.1117,-0.1113,-0.1134,-0.1138,-0.1142,-0.1137,-0.1138,-0.1162,-0.1164,-0.1141,-0.1137,-0.1133,-0.1148,-0.1123,-0.1121,-0.112,-0.1127,-0.1129,-0.113,0,0,0,0,0,0,-0.1086,-0.1089,-0.1114,-0.1105,-0.1109,-0.1134,-0.1137,-0.1142,-0.1166,-0.1144,-0.1144,-0.1185,-0.1141,-0.1136,-0.1145,-0.1145,-0.112,-0.1118,-0.1125,-0.1127,-0.113,-0.114,0,0,0,0,0,0,-0.1085,-0.1088,-0.11,-0.1105,-0.1109,-0.112,-0.1137,-0.1141,-0.1167,-0.1171,-0.1163,-0.116,-0.1142,-0.1149,-0.1143,-0.1141,-0.1116,-0.1123,-0.1126,-0.1129,-0.1138,-0.1143,-0.1147,0,0,0,0,0,-0.1083,-0.1097,-0.11,-0.1104,-0.1121,-0.112,-0.1122,-0.1142,-0.1168,-0.117,-0.1187,-0.1161,-0.1164,-0.1148,-0.1141,-0.1138,-0.1121,-0.1125,-0.1129,-0.1136,-0.1142,-0.1147,0,0,0,0,0,0,-0.1099,-0.1102,-0.1106,-0.1123,-0.1122,-0.1126,-0.1146,-0.1154,-0.117,-0.1188,-0.1173,-0.117,-0.1183,-0.1167,-0.115,-0.1156,-0.1141,-0.1143,-0.115,-0.1155,-0.1159,-0.1144,-0.1114,0,0,0,0,0,-0.1103,-0.111,-0.111,-0.1123,-0.1131,-0.1141,-0.115,-0.1158,-0.1169,-0.1179,-0.1171,-0.1178,-0.1186,-0.1178,-0.1178,-0.1165,-0.1153,-0.1166,-0.117,-0.1174,-0.1161,-0.115,-0.1151,-0.1142,-0.1142,-0.1142,0,0,-0.1116,-0.1117,-0.1124,-0.1126,-0.1138,-0.1131,-0.115,-0.1168,-0.1155,-0.1169,-0.1167,-0.1193,-0.1193,-0.1195,-0.1197,-0.118,-0.1177,-0.1178,-0.1181,-0.1166,-0.1154,-0.1154,-0.1154,-0.1144,-0.1144,-0.1144,0,0,-0.1134,-0.1145,-0.1155,-0.1147,-0.1157,-0.1149,-0.1157,-0.1164,-0.1166,-0.116,-0.119,-0.1221,-0.12,-0.1212,-0.1214,-0.1241,-0.1211,-0.1249,-0.1237,-0.1227,-0.1226,-0.1226,-0.123,-0.123,-0.1237,-0.1237,-0.1237,0,-0.1146,-0.1149,-0.1158,-0.1156,-0.1148,-0.1157,-0.1152,-0.1144,-0.1148,-0.1143,-0.1159,-0.1188,-0.1203,-0.1212,-0.1242,-0.1245,-0.1242,-0.1211,-0.1229,-0.1228,-0.1227,-0.1231,-0.1231,-0.1238,-0.1238,-0.1238,-0.1238,0,-0.1156,-0.1159,-0.1167,-0.1154,-0.1148,-0.1145,-0.1129,-0.1122,-0.1126,-0.1116,-0.1133,-0.1167,-0.1183,-0.1206,-0.1232,-0.1247,-0.1249,-0.1243,-0.1205,-0.1228,-0.1233,-0.1231,-0.124,-0.1239,-0.1239,-0.1239,0,0,-0.1155,-0.1169,-0.1168,-0.1158,-0.1142,-0.1133,-0.111,-0.1081,-0.1074,-0.1075,-0.1067,-0.1117,-0.1153,-0.1163,-0.1209,-0.1214,-0.1236,-0.1232,-0.1231,-0.1219,-0.1224,-0.111,-0.1098,-0.1228,-0.1228,-0.1227,-0.1236,0,-0.1148,-0.1146,-0.1151,-0.1129,-0.1116,-0.1105,-0.1078,-0.1056,-0.1045,-0.1036,-0.1063,-0.1088,-0.1127,-0.1169,-0.1175,-0.123,-0.1231,-0.1235,-0.1218,-0.1218,-0.1098,-0.1091,-0.1226,-0.1235,-0.1235,-0.1234,-0.1234,0,-0.1122,-0.1125,-0.1116,-0.1099,-0.1098,-0.1087,-0.1048,-0.1029,-0.1011,-0.1012,-0.1026,-0.1053,-0.1093,-0.1123,-0.1162,-0.1163,-0.1195,-0.1221,-0.1222,-0.1102,-0.11,-0.1206,-0.1232,-0.1232,-0.1232,-0.1233,-0.1233,0,-0.1072,-0.108,-0.1072,-0.1063,-0.1057,-0.1053,-0.1049,-0.1026,-0.1013,-0.1015,-0.1024,-0.1038,-0.108,-0.1092,-0.1144,-0.1162,-0.1167,-0.1191,-0.1108,-0.1103,-0.1198,-0.1198,-0.1196,-0.1196,-0.1196,-0.1196,-0.1196,0,-0.1016,-0.1008,-0.1058,-0.1045,-0.1031,-0.1042,-0.1025,-0.1017,-0.1024,-0.101,-0.1032,-0.1033,-0.1077,-0.1081,-0.1116,-0.1088,-0.1133,-0.1092,-0.1082,-0.1209,-0.121,-0.1198,-0.1199,-0.1196,-0.1196,-0.1196,-0.1196,0,-0.0942,-0.0974,-0.0965,-0.0994,-0.1002,-0.0994,-0.1017,-0.1004,-0.1027,-0.1016,-0.1026,-0.104,-0.1028,-0.1037,-0.1067,-0.1051,-0.1042,-0.1024,-0.1155,-0.1155,-0.1002,-0.1003,-0.0934,-0.0929,-0.0926,-0.0923,-0.092,0,-0.0903,-0.0893,-0.093,-0.0929,-0.0948,-0.0956,-0.0953,-0.0988,-0.0984,-0.1007,-0.0997,-0.0996,-0.0989,-0.0926,-0.0951,-0.0936,-0.0941,-0.0943,-0.0975,-0.097,-0.0969,-0.0976,-0.0982,-0.0915,-0.0914,-0.0913,-0.0912,0,-0.0827,-0.0853,-0.0861,-0.0867,-0.0877,-0.0869,-0.0887,-0.0881,-0.0915,-0.096,-0.0935,-0.0912,-0.0879,-0.0861,-0.0832,-0.0839,-0.0939,-0.0906,-0.0915,-0.0945,-0.0946,-0.095,-0.096,-0.0899,-0.0901,-0.0902,-0.0903,0,-0.0783,-0.0776,-0.08,-0.0793,-0.0797,-0.077,-0.0791,-0.0797,-0.0804,-0.0854,-0.0844,-0.0839,-0.0869,-0.081,-0.0792,-0.0756,-0.077,-0.0786,-0.0802,-0.0816,-0.0767,-0.0751,-0.0616,0,0,0,0,0,-0.0732,-0.0722,-0.0719,-0.0705,-0.0706,-0.0705,-0.0732,-0.0763,-0.0817,-0.0776,-0.0809,-0.077,-0.0725,-0.0731,-0.0668,-0.0726,-0.0762,-0.0652,-0.0788,-0.0829,-0.0844,-0.0793,0,0,0,0,0,0,-0.0699,-0.0702,-0.07,-0.0633,-0.0604,-0.0594,-0.0605,-0.0647,-0.0635,-0.0698,-0.0672,-0.073,-0.0686,-0.0735,-0.0651,-0.065,-0.0724,-0.0662,-0.066,-0.0821,-0.0834,-0.0846,-0.0798,0,0,0,0,0]},{"header":{"parameterUnit":"m.s-1","parameterCategory":2,"la1":30.2991,"la2":30.254,"lo1":-89.0895,"lo2":-89.0444,"dx":0.0017,"dy":0.0017,"nx":28,"ny":28,"refTime":"2022-12-07T03:00:00:Z","depth":"4","parameterNumber":3,"parameterNumberName":"V-component_of_CURRENTS"},"data":[0,0,0,0,0,0,0,0,0,0,0,0,0,0,0,0,0,0,0,0,0,0,0,0,0,0,0,0,0,0,0,0,0,0,0,0,0,0,0,0,0,0,0,0,0,0,0,0,0,0,0,0,0,0,0,0,0,0,-0.0383,-0.0382,0,-0.0361,-0.0361,-0.0361,-0.0382,-0.0382,-0.0383,-0.0383,-0.0484,-0.0486,-0.0489,0,0,0,0,0,0,0,0,0,0,0,0,0,-0.0422,-0.0422,-0.0383,-0.0382,-0.0381,-0.0361,-0.0361,-0.0361,-0.0382,-0.0382,-0.0383,-0.0383,-0.0483,-0.0486,-0.0489,0,0,0,0,0,0,0,0,0,0,0,0,0,-0.0409,-0.0422,-0.0383,-0.0385,-0.0384,-0.036,-0.0361,-0.0361,-0.0382,-0.0382,-0.0383,-0.0383,-0.0482,-0.0486,-0.0489,-0.0504,0,0,-0.05,-0.0502,0,0,0,0,0,0,0,0,-0.041,-0.0408,-0.0385,-0.0384,-0.0384,-0.0369,-0.0411,-0.0413,-0.0382,-0.0389,-0.0383,-0.0383,-0.0452,-0.0458,-0.0461,-0.0509,-0.0513,-0.0501,-0.0503,-0.0504,-0.0506,0,0,0,0,0,0,0,-0.0411,-0.0409,-0.0381,-0.0384,-0.0383,-0.0378,-0.0378,-0.0411,-0.0426,-0.0389,-0.0389,-0.0376,-0.0454,-0.0457,-0.0463,-0.0515,-0.0501,-0.0504,-0.0506,-0.0508,-0.0583,-0.0583,0,0,0,0,0,0,-0.0401,-0.041,-0.0381,-0.0379,-0.0391,-0.0377,-0.0377,-0.0378,-0.0423,-0.0427,-0.0376,-0.0377,-0.045,-0.0459,-0.0467,-0.0501,-0.0504,-0.0508,-0.051,-0.0583,-0.0583,-0.0582,0,0,0,0,0,0,-0.0403,-0.04,-0.0382,-0.0388,-0.0385,-0.0375,-0.0377,-0.0378,-0.0383,-0.041,-0.0419,-0.038,-0.0451,-0.0462,-0.0464,-0.0504,-0.051,-0.0513,-0.0583,-0.0583,-0.0583,-0.056,0,0,0,0,0,0,-0.0404,-0.0401,-0.0409,-0.0388,-0.0384,-0.0372,-0.0376,-0.0377,-0.0371,-0.0373,-0.0417,-0.0426,-0.0452,-0.0458,-0.0467,-0.0509,-0.0516,-0.0583,-0.0583,-0.0583,-0.0561,-0.0558,-0.0557,0,0,0,0,0,-0.0406,-0.0405,-0.041,-0.0406,-0.0393,-0.0371,-0.037,-0.0368,-0.0371,-0.0375,-0.0375,-0.0425,-0.0464,-0.0459,-0.0471,-0.0515,-0.0584,-0.0583,-0.0583,-0.0561,-0.0559,-0.0557,0,0,0,0,0,0,-0.0423,-0.0406,-0.0411,-0.0406,-0.0393,-0.0373,-0.0371,-0.0367,-0.0371,-0.0378,-0.0403,-0.0411,-0.0432,-0.0464,-0.0458,-0.0533,-0.0542,-0.0543,-0.0522,-0.052,-0.0518,-0.055,-0.0519,0,0,0,0,0,-0.043,-0.0432,-0.041,-0.0409,-0.04,-0.0388,-0.0381,-0.0381,-0.0372,-0.0375,-0.0397,-0.0423,-0.044,-0.0467,-0.0487,-0.0524,-0.0525,-0.0565,-0.0563,-0.0561,-0.0593,-0.06,-0.0601,-0.0581,-0.0581,-0.0581,0,0,-0.0435,-0.0425,-0.0427,-0.0413,-0.0404,-0.0407,-0.0387,-0.0378,-0.0396,-0.0388,-0.0417,-0.041,-0.044,-0.0469,-0.0487,-0.0505,-0.0553,-0.056,-0.0559,-0.0593,-0.0599,-0.0601,-0.0603,-0.0581,-0.0581,-0.0581,0,0,-0.044,-0.0439,-0.0443,-0.0435,-0.042,-0.0417,-0.0414,-0.0399,-0.0411,-0.0418,-0.0413,-0.0415,-0.0459,-0.048,-0.0499,-0.0502,-0.0528,-0.0521,-0.0562,-0.0566,-0.0568,-0.057,-0.0512,-0.051,-0.0539,-0.0539,-0.0539,0,-0.0452,-0.0458,-0.0439,-0.044,-0.0441,-0.0424,-0.0434,-0.0442,-0.0433,-0.0443,-0.0433,-0.0458,-0.0475,-0.0511,-0.0508,-0.0505,-0.0486,-0.0566,-0.0564,-0.0567,-0.0569,-0.051,-0.0508,-0.0537,-0.0538,-0.0538,-0.0538,0,-0.046,-0.0471,-0.0467,-0.0478,-0.0475,-0.0478,-0.0479,-0.0489,-0.0494,-0.0499,-0.0517,-0.0508,-0.0529,-0.0534,-0.0527,-0.0563,-0.0529,-0.0542,-0.0571,-0.057,-0.0507,-0.0504,-0.0536,-0.0536,-0.0537,-0.0537,0,0,-0.0485,-0.0478,-0.0483,-0.0506,-0.05,-0.0508,-0.0528,-0.0547,-0.0567,-0.0571,-0.0589,-0.0607,-0.0589,-0.0607,-0.0594,-0.0609,-0.0576,-0.0591,-0.0592,-0.0535,-0.0536,-0.0475,-0.0466,-0.0587,-0.0588,-0.0589,-0.046,0,-0.0509,-0.0528,-0.0514,-0.0557,-0.0576,-0.0569,-0.0588,-0.0604,-0.0609,-0.062,-0.0625,-0.0629,-0.0623,-0.0613,-0.0628,-0.0591,-0.058,-0.0607,-0.0547,-0.0544,-0.0494,-0.0467,-0.0592,-0.0459,-0.0458,-0.0458,-0.0458,0,-0.0542,-0.0552,-0.0589,-0.0616,-0.062,-0.0645,-0.0678,-0.0689,-0.0692,-0.0687,-0.0693,-0.067,-0.0677,-0.0664,-0.0636,-0.0649,-0.0599,-0.0571,-0.0565,-0.0533,-0.0484,-0.0476,-0.0454,-0.0454,-0.0455,-0.0455,-0.0455,0,-0.0603,-0.062,-0.066,-0.067,-0.0683,-0.071,-0.0718,-0.0721,-0.0734,-0.0725,-0.0711,-0.0712,-0.069,-0.0672,-0.06,-0.0617,-0.0545,-0.0556,-0.0448,-0.0439,-0.0543,-0.0543,-0.0537,-0.0537,-0.0537,-0.0537,-0.0538,0,-0.0651,-0.0687,-0.0701,-0.0729,-0.077,-0.0767,-0.0805,-0.0796,-0.0794,-0.0794,-0.0752,-0.0734,-0.0696,-0.0638,-0.0596,-0.0501,-0.0535,-0.0453,-0.0419,-0.0524,-0.0524,-0.0537,-0.0538,-0.0532,-0.0533,-0.0534,-0.0535,0,-0.0701,-0.0716,-0.076,-0.0786,-0.0803,-0.0831,-0.0849,-0.0858,-0.0847,-0.0839,-0.0829,-0.0753,-0.0661,-0.0589,-0.0514,-0.047,-0.0402,-0.0354,-0.0419,-0.039,-0.0286,-0.0288,-0.023,-0.0227,-0.0225,-0.0223,-0.0221,0,-0.0718,-0.0754,-0.0795,-0.0814,-0.0829,-0.0869,-0.0877,-0.0886,-0.0883,-0.0846,-0.0828,-0.073,-0.0665,-0.0487,-0.0433,-0.0306,-0.0301,-0.024,-0.0325,-0.029,-0.0262,-0.0268,-0.0273,-0.0217,-0.0217,-0.0216,-0.0215,0,-0.0743,-0.0765,-0.0788,-0.0826,-0.0859,-0.0873,-0.0892,-0.0896,-0.0883,-0.0891,-0.0798,-0.0699,-0.0567,-0.0455,-0.0327,-0.0261,-0.0282,-0.0216,-0.0222,-0.0301,-0.0274,-0.025,-0.0258,-0.0207,-0.0208,-0.0209,-0.021,0,-0.0745,-0.0757,-0.0797,-0.0819,-0.0854,-0.0852,-0.0865,-0.0845,-0.0848,-0.081,-0.0782,-0.0654,-0.0595,-0.0427,-0.0338,-0.0235,-0.0235,-0.0225,-0.023,-0.0239,-0.0296,-0.0266,-0.0169,0,0,0,0,0,-0.0734,-0.0752,-0.078,-0.0809,-0.0836,-0.0854,-0.0857,-0.0861,-0.0866,-0.0791,-0.079,-0.0666,-0.0494,-0.0423,-0.0309,-0.031,-0.0226,-0.0174,-0.0219,-0.0161,-0.0171,-0.0234,0,0,0,0,0,0,-0.0733,-0.0767,-0.0776,-0.0795,-0.0808,-0.0834,-0.0826,-0.0821,-0.0776,-0.0769,-0.0669,-0.0651,-0.0478,-0.0565,-0.0314,-0.0286,-0.0299,-0.0108,-0.0106,-0.0156,-0.0164,-0.0172,-0.0241,0,0,0,0,0]}]]